Location: ???? ?????????
(31.1304°N, 31.7111°E)
Time: 15:54:43
(UTC+00:00)

Courier 1B Rocket - All Passes

Search period start: 27 February 2021 00:00
Search period end: 09 March 2021 00:00
Orbit: 920 x 1202 km, 28.3° (Epoch: 26 February)

Date Brightness Start Highest point End Pass type
(mag) Time Alt. Az. Time Alt. Az. Time Alt. Az.
27 Feb - 11:16:48 10° SSE 11:18:53 11° SE 11:20:59 10° SE daylight
27 Feb - 13:05:10 10° SW 13:11:46 35° SSE 13:18:37 10° E daylight
27 Feb - 14:57:36 10° WSW 15:05:11 64° S 15:12:55 10° E daylight
27 Feb - 16:51:10 10° W 16:58:58 72° S 17:06:41 10° E visible
27 Feb - 18:45:08 10° W 18:52:37 50° SSW 18:59:50 10° SE visible
27 Feb - 20:40:13 10° WSW 20:45:44 22° SSW 20:51:02 10° SSE visible
28 Feb - 12:04:58 10° SSW 12:10:44 25° SSE 12:16:45 10° E daylight
28 Feb - 13:56:38 10° WSW 14:03:55 55° SSE 14:11:31 10° E daylight
28 Feb - 15:49:54 10° W 15:57:37 73° S 16:05:26 10° E daylight
28 Feb - 17:43:42 10° W 17:51:23 59° SSW 17:58:55 10° ESE visible
28 Feb - 19:38:09 10° W 19:44:43 30° SSW 19:51:02 10° SSE visible
01 Mar - 11:05:20 10° S 11:09:47 17° SSE 11:14:24 10° ESE daylight
01 Mar - 12:55:52 10° SW 13:02:45 44° SSE 13:10:01 10° E daylight
01 Mar - 14:48:44 10° WSW 14:56:18 70° S 15:04:06 10° E daylight
01 Mar - 16:42:22 10° W 16:50:05 67° S 16:57:49 10° ESE visible
01 Mar - 18:36:27 10° W 18:43:37 40° SSW 18:50:36 10° SE visible
01 Mar - 20:32:42 10° WSW 20:36:38 15° SSW 20:40:29 10° S visible
02 Mar - 10:07:27 10° SSE 10:08:54 11° SE 10:10:22 10° SE daylight
02 Mar - 11:55:22 10° SW 12:01:41 34° SSE 12:08:22 10° E daylight
02 Mar - 13:47:41 10° WSW 13:55:00 64° S 14:02:42 10° E daylight
02 Mar - 15:41:07 10° W 15:48:46 72° S 15:56:35 10° ESE daylight
02 Mar - 17:34:57 10° W 17:42:26 50° SSW 17:49:50 10° SE visible
02 Mar - 19:29:58 10° WSW 19:35:37 22° SSW 19:41:10 10° SSE visible
03 Mar - 10:55:15 10° SSW 11:00:43 25° SSE 11:06:28 10° E daylight
03 Mar - 12:46:48 10° WSW 12:53:48 54° SSE 13:01:15 10° E daylight
03 Mar - 14:39:56 10° W 14:47:26 73° S 14:55:15 10° E daylight
03 Mar - 16:33:36 10° W 16:41:11 59° SSW 16:48:51 10° ESE visible
03 Mar - 18:27:58 10° W 18:34:34 30° SSW 18:41:05 10° SSE visible
04 Mar - 09:55:43 10° S 09:59:50 17° SSE 10:04:06 10° ESE daylight
04 Mar - 11:46:08 10° SW 11:52:42 44° SSE 11:59:43 10° E daylight
04 Mar - 13:38:53 10° WSW 13:46:09 70° S 13:53:51 10° E daylight
04 Mar - 15:32:22 10° W 15:39:53 67° S 15:47:40 10° ESE daylight
04 Mar - 17:26:19 10° W 17:33:26 39° SSW 17:40:33 10° SE visible
04 Mar - 19:22:28 10° WSW 19:26:31 15° SSW 19:30:32 10° S visible
05 Mar - 10:45:43 10° SW 10:51:42 33° SSE 10:58:05 10° E daylight
05 Mar - 12:37:56 10° WSW 12:44:56 63° S 12:52:26 10° E daylight
05 Mar - 14:31:13 10° W 14:38:36 71° S 14:46:22 10° ESE daylight
05 Mar - 16:24:55 10° W 16:32:15 49° SSW 16:39:42 10° SE visible
05 Mar - 18:19:49 10° WSW 18:25:29 22° SSW 18:31:07 10° SSE visible
06 Mar - 09:45:38 10° SSW 09:50:48 24° SSE 09:56:13 10° ESE daylight
06 Mar - 11:37:07 10° WSW 11:43:47 54° SSE 11:50:58 10° E daylight
06 Mar - 13:30:08 10° W 13:37:19 72° S 13:44:59 10° E daylight
06 Mar - 15:23:39 10° W 15:31:00 58° SSW 15:38:39 10° ESE daylight
06 Mar - 17:17:53 10° W 17:24:23 30° SSW 17:30:57 10° SSE visible
07 Mar - 08:46:10 10° S 08:49:58 16° SSE 08:53:53 10° ESE daylight
07 Mar - 10:36:30 10° SW 10:42:45 43° SSE 10:49:28 10° E daylight
07 Mar - 12:29:10 10° WSW 12:36:06 69° S 12:43:34 10° E daylight
07 Mar - 14:22:31 10° W 14:29:45 66° S 14:37:25 10° ESE daylight
07 Mar - 16:16:20 10° W 16:23:15 38° SSW 16:30:22 10° SE visible
07 Mar - 18:12:24 10° WSW 18:16:23 15° SSW 18:20:23 10° S visible
08 Mar - 09:36:07 10° SW 09:41:49 32° SSE 09:47:52 10° E daylight
08 Mar - 11:28:17 10° WSW 11:34:57 63° S 11:42:09 10° E daylight
08 Mar - 13:21:27 10° W 13:28:31 70° S 13:36:05 10° ESE daylight
08 Mar - 15:15:01 10° W 15:22:05 48° SSW 15:29:28 10° SE daylight
08 Mar - 17:09:49 10° WSW 17:15:19 21° SSW 17:20:54 10° SSE visible
